Epoch 2015 Sept. 15.0 TT = JDT 2457280.5 T 2015 Sept. 21.59863 TT MPCW q 5.9750727 (2000.0) P Q n 0.03288461 Peri. 188.41853 -0.99868797 +0.03658897 a 9.6488215 Node 353.35583 -0.00381842 -0.75089026 e 0.3807458 Incl. 18.03806 -0.05106628 -0.65941267 P 29.97 From 90 observations 2014 Nov. 30-2016 Mar. 4, mean residual 0".3.
m1 = 8.0 + 5 logΔ + 10.0 log r